Home > Weather > Monza > Past weeks

Flag for Italy Weather for the Past 2 Weeks in Monza, Italy

Now
73 °F

Passing clouds.


Feels Like: 76 °F
Forecast: 51 / 71 °F
Wind: 5 mph from South

Location: Milan / Linate

Current Time: May 3, 2016 at 3:32:38 PM

Latest Report: May 3, 2016 at 2:50 PM


Visibility: N/A

Pressure: 29.89 "Hg

Humidity: 29%

Dew Point: 39 °F

Location of MonzaLocation

Historic Weather in Monza — Graph

°F

Monza Temperature Yesterday

Maximum temperature yesterday: 63 °F (at 1:20 PM)
Minimum temperature yesterday: 50 °F (at 3:20 AM)
Average temperature yesterday: 57 °F

High & Low Weather Summary for the Past Weeks

 TemperatureHumidityPressure
High75 °F (Apr 22, 3:50 PM)94% (Apr 24, 4:50 AM)30.30 "Hg (Apr 24, 4:50 AM)
Low41 °F (Apr 25, 4:20 AM)13% (Apr 27, 3:50 PM)29.50 "Hg (Apr 24, 2:20 PM)
Average58 °F57%29.91 "Hg
* Reported Apr 18 2:20 PM — May 3 2:20 PM, Monza, Weather by CustomWeather, © 2016

Note: Actual official high and low records may vary slightly from our data, if they occured in-between our weather recording intervals... More about our weather records

Advertising

Monza Weather History for the Previous 24 Hours

Scroll right to see more
 ConditionsComfort  
Time TempWeatherWind HumidityBarometerVisibility
2:20 PM
Tue, May 3
73 °FPassing clouds.6 mph27%29.92 "HgN/A
1:20 PM72 °FPassing clouds.7 mph31%29.92 "HgN/A
12:50 PM72 °FPassing clouds.7 mph36%29.95 "HgN/A
12:20 PM70 °FPassing clouds.7 mph38%29.95 "HgN/A
11:50 AM70 °FPassing clouds.5 mph43%29.95 "HgN/A
11:20 AM68 °FPassing clouds.3 mph53%29.95 "HgN/A
10:50 AM66 °FPassing clouds.5 mph60%29.98 "HgN/A
10:20 AM64 °FPassing clouds.3 mph64%29.98 "HgN/A
9:50 AM63 °FPassing clouds.3 mph64%29.98 "HgN/A
9:20 AM61 °FPassing clouds.2 mph72%29.95 "HgN/A
8:50 AM57 °FPassing clouds.3 mph82%29.95 "HgN/A
8:20 AM54 °FPassing clouds.2 mph88%29.95 "HgN/A
7:50 AM54 °FPassing clouds.3 mph88%29.95 "HgN/A
7:20 AM52 °FFog.5 mph94%29.95 "HgN/A
6:50 AM50 °FFog.3 mph94%29.95 "Hg4 mi
5:50 AM48 °FPassing clouds.No wind94%29.95 "HgN/A
5:20 AM48 °FPassing clouds.2 mph94%29.95 "HgN/A
4:20 AM52 °FPassing clouds.5 mph94%29.95 "HgN/A
2:50 AM52 °FPassing clouds.2 mph88%29.95 "HgN/A
2:20 AM54 °FPassing clouds.1 mph82%29.95 "HgN/A
1:50 AM54 °FPassing clouds.5 mph82%29.95 "HgN/A
1:20 AM55 °FPassing clouds.5 mph77%29.95 "HgN/A
12:50 AM52 °FPassing clouds.5 mph88%29.95 "HgN/A
11:50 PM
Mon, May 2
55 °FPassing clouds.3 mph77%29.95 "HgN/A
11:20 PM55 °FPassing clouds.3 mph82%29.95 "HgN/A
10:50 PM57 °FPassing clouds.3 mph77%29.95 "HgN/A
10:20 PM59 °FPassing clouds.2 mph72%29.95 "HgN/A
9:50 PM61 °FPassing clouds.3 mph72%29.95 "HgN/A
9:20 PM61 °FPartly sunny.2 mph72%29.95 "HgN/A
8:50 PM63 °FPartly sunny.2 mph59%29.95 "HgN/A
8:20 PM63 °FPartly sunny.2 mph59%29.95 "HgN/A
7:50 PM63 °FPartly sunny.3 mph59%29.92 "HgN/A
7:20 PM63 °FPartly sunny.2 mph64%29.92 "HgN/A
6:50 PM63 °FPartly sunny.5 mph64%29.92 "HgN/A
6:20 PM63 °FPartly sunny.6 mph64%29.92 "HgN/A
5:50 PM63 °FPartly sunny.6 mph64%29.92 "HgN/A
5:20 PM63 °FPartly sunny.5 mph64%29.92 "HgN/A
4:50 PM63 °FPartly sunny.1 mph59%29.92 "HgN/A
4:20 PM63 °FPartly sunny.6 mph59%29.95 "HgN/A
3:50 PM63 °FScattered clouds.3 mph64%29.92 "HgN/A
3:20 PM63 °FScattered clouds.7 mph64%29.95 "HgN/A
Weather by CustomWeather, © 2016

See weather overviewHow to use our weather pages